Regional Weather Roundup
Issued by NWS

Home | Current Version | Previous Version | Graphics & Text | Print | Product List | Glossary On
Versions: 1 2 3 4 5 6 7 8 9 10 11 12 13 14 15 16 17 18 19 20 21 22 23 24 25 26 27 28 29 30 31 32 33 34 35 36 37 38 39 40 41 42 43 44 45 46 47 48 49 50
166
ASUS43 KMPX 071310
RWRMN
WEATHER ROUNDUP FOR MINNESOTA
NATIONAL WEATHER SERVICE TWIN CITIES/CHANHASSEN MN
700 AM CST SUN FEB 07 2016


NOTE: "FAIR" INDICATES FEW OR NO CLOUDS BELOW 12,000 FEET WITH NO
SIGNIFICANT WEATHER AND/OR OBSTRUCTIONS TO VISIBILITY. N/A MEANS
CURRENT SKY AND/OR WEATHER CONDITIONS ARE NOT AVAILABLE.

MNZ060>063-068>070-071400-
   Twin Cities Metro

CITY           SKY/WX    TMP DP  RH WIND       PRES   REMARKS
TWIN CITIES    CLOUDY    37  28  70 W15G21    29.63S
ST PAUL        MOCLDY    37  29  72 W13G21    29.63S
CRYSTAL        CLOUDY    38  29  70 W15       29.61S
BLAINE         CLOUDY    39  32  75 W14G22    29.61R
LAKEVILLE      PTCLDY    36  28  75 W17G28    29.64S
EDEN PRAIRIE   CLOUDY    38  28  67 W16G22    29.63S
SOUTH ST PAUL  MOCLDY    37  29  74 W12G17    29.62F
LAKE ELMO      CLOUDY    36  32  87 W13       29.62S
$$
MNZ001>005-007-008-013>017-022>024-027-028-071400-
   Northwest Minnesota

CITY           SKY/WX    TMP DP  RH WIND       PRES   REMARKS
BEMIDJI        LGT SNOW  32  32  99 W14       29.45S WCI  22
HALLOCK        CLOUDY    32  30  93 NW15      29.49R WCI  22
ROSEAU         LGT SNOW  30  27  86 W14G23    29.41R WCI  20
WARROAD        LGT SNOW  30  27  86 W15       29.40R WCI  19
THIEF RVR FALL CLOUDY    34  30  86 W16       29.48S WCI  23
CROOKSTON      FLURRIES  34  32  93 NW15G21   29.52R WCI  24
DETROIT LAKES  CLOUDY    34  32  93 W16G24    29.56R WCI  23
MOORHEAD       MOCLDY    36  27  69 W23G33    29.61R
PARK RAPIDS    LGT SNOW  34  32  92 W21G30    29.49R FOG     WCI  22
MAHNOMEN       LGT SNOW  32  31  96 W18G24    29.52S WCI  20
$$
MNZ006-009>011-018-025>026-071400-
   North Central Minnesota

CITY           SKY/WX    TMP DP  RH WIND       PRES   REMARKS
BAUDETTE       CLOUDY    33  27  78 W13       29.36R WCI  24
FLAG ISLAND    MIX PCPN  30  27  86 W16       29.36R WCI  19
INTL FALLS     LGT SNOW  33  32  96 VRB3      29.37R FOG
WASKISH        CLOUDY    34  30  86 W14G24    29.40S WCI  24
LONGVILLE      LGT SNOW  34  30  86 W8        29.45S WCI  27
GRAND RAPIDS   CLOUDY    34  30  86 W8        29.43S WCI  27
CRANE LAKE     CLOUDY    32  32 100 S2        29.41F
ORR            LGT SNOW  32  30  93 CALM      29.36F
COOK           LGT SNOW  32  32 100 S5        29.40S WCI  27
WALKER         FLURRIES  32  31  96 W13       29.46R WCI  22
$$
MNZ012-019>021-037-071400-
   Northeast Minnesota

CITY           SKY/WX    TMP DP  RH WIND       PRES   REMARKS
DULUTH         FRZ DRZL  32  30  92 SW9       29.44F FOG     WCI  24
ELY            LGT SNOW  32  30  93 S3        29.41F
HIBBING        LGT SNOW  30  30 100 VRB3      29.41S VSB 3/4
EVELETH        LGT SNOW  32  32 100 S6        29.42F WCI  26
DULUTH HARBOR  CLOUDY    36  32  87 SW12      29.48F
TWO HARBORS    CLOUDY    34  28  80 CALM      29.44F HAZE
SILVER BAY     LGT SNOW  32  30  93 CALM      29.45S
GRAND MARAIS     N/A     35  31  85 S14       29.50F WCI  26
G MARAIS ARPRT MIX PCPN  28  27  93 S8        29.45F VSB 1/4 WCI  20
$$
MNZ029>031-032-039>041-046>048-054>057-064-071400-
   West Central Minnesota

CITY           SKY/WX    TMP DP  RH WIND       PRES   REMARKS
FERGUS FALLS   PTCLDY    34  28  80 W22G30    29.64S WCI  22
WHEATON        PTCLDY    37  28  70 W20G32    29.69S
MORRIS         CLEAR     36  27  69 W20G29    29.65S
ALEXANDRIA     FLURRIES  35  26  69 W26G36    29.60R WCI  22
ELBOW LAKE     FAIR      33  28  79 NW24G30   29.64R HAZE    WCI  21
WADENA         MIX PCPN  32  30  93 W13G20    29.55R WCI  22
GLENWOOD       CLOUDY    36  27  69 W24G32    29.62S
APPLETON       CLOUDY    36  27  69 W21       29.70S
BENSON         CLEAR     34  27  75 NW15      29.68S WCI  24
ORTONVILLE     CLOUDY    36  25  64 W18G26    29.71R
MADISON        MOCLDY    36  27  69 W20G29    29.73R
WILLMAR        FAIR      36  28  75 W18G24    29.68S
$$
MNZ033>034-036-042>043-049>051-058-059-071400-
   Central Minnesota

CITY           SKY/WX    TMP DP  RH WIND       PRES   REMARKS
ST CLOUD       CLOUDY    36  29  75 W24G30    29.58S
SAUK CENTRE    CLOUDY    35  27  73 W24G36    29.59S WCI  23
PAYNESVILLE    CLOUDY    36  28  73 W21G26    29.64R
AITKIN         MIX PCPN  37  30  75 W10G17    29.46S
PINE RIVER     FLURRIES  34  30  86 W12G18    29.53R WCI  25
BRAINERD       FLURRIES  34  31  88 W15       29.51R WCI  24
STAPLES        FLURRIES  32  30  93 W22G29    29.54R WCI  19
LONG PRAIRIE   CLOUDY    34  28  80 W18G25    29.58S WCI  23
LITTLE FALLS   CLOUDY    34  30  86 W14G22    29.57S WCI  24
LITCHFIELD     PTCLDY    37  28  70 W13G21    29.65R
BUFFALO        CLOUDY    36  29  73 W17G26    29.63S
MAPLE LAKE     MOCLDY    38  30  74 W14G24    29.62S
$$
MNZ037-044-045-052-053-071400-
   East Central Minnesota

CITY           SKY/WX    TMP DP  RH WIND       PRES   REMARKS
PRINCETON      CLOUDY    37  30  75 W14G23    29.58S
MORA           CLOUDY    36  30  80 W10G18    29.54S
CAMBRIDGE      CLOUDY    39  30  70 W15G21    29.55S
RUSH CITY      CLOUDY    36  31  85 SW13      29.55S
MOOSE LAKE     LGT RAIN  34  32  93 SW9       29.45F WCI  26
HINCKLEY       CLOUDY    36  32  87 SW12      29.52S
CLOQUET        FLURRIES  34  30  86 SW8       29.45S WCI  27
MCGREGOR       CLOUDY    34  32  93 W8        29.47S WCI  27
$$
MNZ071>073-080-081-089-090-097-098-071400-
   Southwest Minnesota

CITY           SKY/WX    TMP DP  RH WIND       PRES   REMARKS
MONTEVIDEO     PTCLDY    36  27  69 NW18G25   29.72S
GRANITE FALLS  PTCLDY    36  28  73 W20       29.74S
CANBY          PTCLDY    38  29  69 NW26G33   29.75S
MARSHALL       PTCLDY    36  25  64 W33G40    29.72F
REDWOOD FALLS  CLEAR     35  25  66 W24G31    29.71R WCI  23
OLIVIA         CLEAR     34  28  80 W21       29.68S WCI  22
PIPESTONE      PTCLDY    36  21  55 NW18      29.79S
WINDOM         CLEAR     32  25  74 W20       29.75S WCI  20
WORTHINGTON    PTCLDY    34  23  64 W24       29.79F WCI  21
JACKSON        CLEAR     34  23  64 W23G30    29.76S WCI  22
TRACY          CLEAR     35  26  68 W16G25    29.75S WCI  25
SLAYTON        PTCLDY    32  27  80 W22G31    29.78R WCI  20
$$
MNZ065>067-074>077-082>085-091>093-071400-
   South Central Minnesota

CITY           SKY/WX    TMP DP  RH WIND       PRES   REMARKS
MANKATO        PTCLDY    36  25  64 W14       29.71R
NEW ULM        CLEAR     34  25  69 W18       29.71S WCI  23
ST JAMES       CLEAR     34  27  75 W22       29.74S WCI  22
FAIRMONT       CLEAR     36  25  64 W21       29.74S
GLENCOE        PTCLDY    36  30  78 W15G21    29.65S
FARIBAULT      MOCLDY    36  28  75 W15       29.68S
OWATONNA       PTCLDY    30  25  80 W13       29.69S WCI  20
WASECA         MOCLDY    32  28  86 W17       29.72S WCI  21
ALBERT LEA     CLEAR     34  27  75 W12G18    29.71F WCI  25
$$
MNZ078>079-086>088-094>096-071400-
   Southeast Minnesota

CITY           SKY/WX    TMP DP  RH WIND       PRES   REMARKS
ROCHESTER      CLEAR     32  25  75 W18       29.68S WCI  20
RED WING       PTCLDY    32  27  80 NW6       29.64S WCI  26
STANTON        CLOUDY    37  28  71 W15       29.65S
DODGE CENTER   CLEAR     28  25  86 W14       29.68R WCI  17
WINONA         CLEAR     34  28  80 W6        29.69S WCI  29
AUSTIN         CLEAR     34  27  75 W13G20    29.71S WCI  25
PRESTON        CLEAR     30  25  81 SW13      29.70R WCI  20
$$
ABBREVIATIONS USED IN REMARKS
   TC - TEMPERATURES IN CELSIUS
  WCI - WIND CHILL INDEX
   HX - HEAT INDEX
  VSB - VISIBILITY
$$




USA.gov is the U.S. government's official web portal to all federal, state and local government web resources and services.